Location: Unspecified
(0.0000°N, 0.0000°E)
Time: 15:11:34
(UTC+00:00)

AAUSAT3 - Pass Details

Date: 13 August 2024
Orbit: 756 x 773 km, 98.4° (Epoch: 17 September)

Event Time Altitude Azimuth Distance (km) Brightness Sun altitude
Rises 18:36:30 0° 356° (N) 3,210 ? -7.7°
Reaches altitude 10° 18:38:57 10° 348° (NNW) 2,290 ? -8.3°
Maximum altitude 18:43:33 36° 282° (WNW) 1,192 ? -9.4°
Drops below altitude 10° 18:48:12 10° 216° (SW) 2,309 ? -10.5°
Sets 18:50:41 0° 208° (SSW) 3,241 ? -11.1°
